Location: The D'Auria's Ocala Star Observatory
(29.0276°N, 82.1742°W)
Time: 10:05:02
(UTC-04:00)

Daily predictions for brighter satellites

Satellite Brightness Start Highest point End
(mag) Time Altitude Azimuth Time Altitude Azimuth Time Altitude Azimuth
Meteor 2-5 Rocket 4.1 19:59:02 10° N 20:04:50 78° W 20:10:42 10° S
Meteor 1-4 Rocket 3.4 20:02:21 10° SSE 20:05:17 26° E 20:08:12 10° NE
Helios 1B rocket 4.1 20:09:33 10° ENE 20:11:36 13° E 20:13:37 10° SE
In-Cosmos 22 4.5 20:08:55 10° N 20:13:53 41° E 20:18:50 10° SSE
Cosmos 1378 3.4 20:11:59 10° N 20:15:44 76° W 20:19:26 10° S
Cosmos 1544 3.2 20:14:28 10° S 20:17:59 52° E 20:21:34 10° NNE
Cosmos 1867 3.7 20:13:52 10° SSW 20:19:18 82° WNW 20:24:47 10° NNE
Cosmos 1934 Rocket 4.2 20:13:38 10° S 20:19:46 77° W 20:25:51 10° N
FENGYUN 3A 3.9 20:16:04 10° SSE 20:21:15 50° ENE 20:26:27 10° N
H-2A R/B (2) 1.3 20:19:16 10° W 20:21:57 82° S 20:26:56 12° E
Cosmos 1805 3.2 20:20:31 10° S 20:24:21 67° E 20:28:14 10° NNE
ALOS 2.3 20:22:41 10° SSE 20:27:16 60° ENE 20:31:52 10° N
Okean 3 Rocket 3.8 20:23:14 10° N 20:27:30 47° E 20:31:45 10° SSE
Cosmos 1833 Rocket 3.8 20:27:10 10° N 20:31:39 24° ENE 20:34:47 15° ESE
Abrixas 4.2 20:32:48 10° N 20:34:49 17° NE 20:35:43 15° ENE
Cosmos 2278 Rocket 4.2 20:30:10 10° SW 20:35:11 32° WNW 20:40:14 10° N
ATLAS 5 CENTAUR R/B 1.8 20:33:15 10° SSW 20:37:49 79° WNW 20:42:41 10° NNE
Tiangong 1 0.9 20:35:48 10° WNW 20:38:44 78° SW 20:40:25 22° SE
RESURS DK-1 3.1 20:35:04 10° NNW 20:39:06 56° WSW 20:43:08 10° S
Cosmos 1125 Rocket 3.8 20:34:03 10° SSW 20:39:12 71° WNW 20:44:25 10° N
Delta 2 Rocket 3.7 20:34:49 10° WNW 20:39:50 77° SSW 20:42:56 19° ESE
SeaSat 1 2.8 20:35:29 11° SE 20:40:03 45° ENE 20:44:44 10° N
Cosmos 1733 3.9 20:37:28 10° SSE 20:40:53 31° E 20:44:20 10° NNE
PSLV R/B 3.2 20:38:06 10° SW 20:41:10 55° SE 20:42:50 24° ENE
Cosmos 1470 3.3 20:38:49 10° SSE 20:42:28 36° E 20:46:07 10° NNE
Yuri Rocket 3.3 20:39:45 10° W 20:44:11 54° SSW 20:46:41 22° SE
Cosmos-2242 3.3 20:41:06 10° SSE 20:45:07 43° E 20:49:08 10° NNE
GPS 2-05 Rocket1 4.4 20:42:40 10° WNW 20:45:49 29° N 20:48:14 15° NE
OAO 2 Rocket 3.3 20:42:31 10° WSW 20:47:39 73° SSE 20:51:18 20° ENE
Cosmos 1048 Rocket 4.4 20:43:47 10° N 20:48:35 40° ENE 20:51:40 20° SE
Geosat 3.9 20:43:35 10° NNE 20:48:35 66° ESE 20:53:32 10° SSW
GP-B 3.6 20:44:32 10° SSE 20:48:39 38° E 20:52:46 10° NNE
Cosmos 1766 Rocket 4.1 20:45:48 10° NNE 20:49:57 37° E 20:52:21 21° SE
HJ-1C 3.7 20:47:49 10° S 20:51:10 70° W 20:54:34 10° NNW
CZ-4C R/B 4.0 20:49:20 10° SSE 20:49:29 11° SSE 20:49:29 11° SSE
SJ-6B 4.0 20:50:32 10° S 20:54:03 40° W 20:57:36 10° NNW
H-2A R/B 2.7 20:52:12 10° SSE 20:56:05 85° ENE 21:00:00 10° N
Resurs 01 Rocket 1.5 20:53:48 10° SSE 20:58:11 83° ENE 21:02:37 10° N
Cosmos 1340 Rocket 4.0 20:59:53 10° NNE 21:02:28 26° NE 21:02:28 26° NE
ISS -0.8 21:07:08 10° WNW 21:08:56 14° NW 21:10:45 10° N
Cosmos 2100 Rocket 3.9 21:05:01 10° S 21:11:17 77° E 21:17:38 10° N
Cosmos 2082 Rocket 2.1 21:06:26 10° NNW 21:12:04 65° ENE 21:14:41 32° SE
SAR-Lupe-4 3.8 21:16:29 54° NE 21:16:29 54° NE 21:19:34 10° N
Meteor 1-29 2.9 21:13:35 10° NNE 21:16:42 67° NE 21:16:42 67° NE
Meteor 1-16 Rocket 4.5 21:11:59 10° SSE 21:17:31 48° E 21:23:10 10° NNE
BREEZE-M DEB (TANK) 4.2 21:15:33 10° SSW 21:16:23 19° SSW 21:16:23 19° SSW
Cosmos 1271 Rocket 3.4 21:17:48 10° SSW 21:21:43 56° W 21:25:41 10° N
Delta 128 3.4 21:19:50 10° W 21:24:22 72° S 21:24:46 67° SE
COSMOS 2487 2.7 21:23:16 10° NNW 21:26:45 68° W 21:26:45 68° W
Aurora 2 Rocket 3.3 21:20:15 10° W 21:27:42 61° S 21:28:56 50° SE
H-2A R/B 3.9 21:22:43 10° W 21:28:23 88° S 22:53:45 10° E
H-2A R/B 3.9 21:22:43 10° W 21:28:23 88° S 22:53:46 10° E
Delta 7925 Rocket 4.1 21:27:08 10° SW 21:31:49 37° S 21:31:49 37° S
Cosmos 1818 4.0 21:27:12 10° NW 21:32:31 58° WSW 21:35:03 30° S
Cosmos 1269 Rocket 4.3 21:27:28 10° NNW 21:32:43 67° WSW 21:35:23 29° S
Cosmos 1802 Rocket 3.9 21:28:59 10° S 21:35:06 86° W 21:41:17 10° N
Cosmos 1674 3.4 21:32:01 10° NNW 21:35:42 51° W 21:36:15 46° SW
Cosmos 158 Rocket 4.1 21:32:13 10° NNW 21:37:25 74° WSW 21:39:06 44° S
USA 215 3.2 21:31:53 10° NE 21:38:26 84° NW 21:44:57 10° SW
Mugunghwa Rocket 4.0 21:32:56 10° WSW 21:39:03 54° SSE 21:39:29 53° SSE
Cosmos 1408 Rocket 4.4 21:36:27 10° NNW 21:40:46 49° W 21:42:45 28° SSW
Helios 1B rocket 4.2 21:43:14 10° N 21:46:55 32° WNW 21:50:33 10° SW
Lacrosse 5 rocket 3.5 21:53:03 10° NNW 21:54:09 17° NNW 21:54:09 17° NNW
Timation 2 Rocket 4.4 21:59:20 10° NNW 22:05:20 55° WSW 22:06:20 49° SW
Envisat 3.6 22:08:42 53° WNW 22:08:42 53° WNW 22:13:03 10° NNW
Cosmos 1833 Rocket 4.0 22:10:31 10° NW 22:15:32 34° WSW 22:16:33 32° SW
CZ-3 Stage 3 3.2 22:18:12 10° W 22:37:50 74° WNW 22:37:50 74° WNW
